Weather History for Gulkana, AK

Change the Weather History Date:

Friday, July 12, 2013

  Actual Average Record
Temperature  
Mean Temperature 62 °F -  
Max Temperature 78 °F 67 °F 88 °F (1951)
Min Temperature 46 °F 46 °F 33 °F (1990)
Degree Days  
Heating Degree Days 3    
Growing Degree Days 12 (Base 50)    
Moisture  
Dew Point 38 °F    
Average Humidity 42    
Maximum Humidity 80    
Minimum Humidity 12    
Precipitation  
Precipitation 0.00 in - - ()
Sea Level Pressure  
Sea Level Pressure 29.93 in    
Wind  
Wind Speed 8 mph (NNE)    
Max Wind Speed 13 mph    
Max Gust Speed 17 mph    
Visibility 10 miles    
Events      
Averages and records for this station are not official NWS values.
T = Trace of Precipitation, MM = Missing Value Source: NWS Daily Summary

Daily Weather History Graph

Daily Weather History Graph

Search for Another Location

Airport:

Trip Planner

Search our weather history database for the weather conditions in past years. The results will help you decide how hot, cold, wet, or windy it might be!

Date:

Astronomy

Jul. 12, 2013 Rise Set
Actual Time 4:17 AM AKDT 11:16 PM AKDT
Civil Twilight 2:19 AM AKDT 1:30 AM AKDT
Nautical Twilight Sun does not rise Sun does not rise
Astronomical Twilight Sun does not rise Sun does not rise
Moon 10:34 AM AKDT (7/12) 11:30 PM AKDT (7/12)
Length of Visible Light 23h 10m
Length of Day
18h 59m
Waxing Crescent, 18% of the Moon is Illuminated
Jul 12
Waxing Crescent
Jul 15
First Quarter
Jul 22
Full
Jul 29
Last Quarter
Aug 6
New

Hourly Weather History & Observations

Time (AKDT) Temp. Dew Point Humidity Pressure Visibility Wind Dir Wind Speed Gust Speed Precip Events Conditions
12:53 AM 57.0 °F 43.0 °F 59% 29.91 in 10.0 mi North 12.7 mph - N/A   Clear
1:53 AM 57.0 °F 43.0 °F 59% 29.94 in 10.0 mi NNE 10.4 mph - N/A   Clear
2:53 AM 54.0 °F 43.0 °F 66% 29.95 in 10.0 mi NNE 4.6 mph - N/A   Clear
3:53 AM 51.1 °F 42.1 °F 71% 29.95 in 10.0 mi NNE 5.8 mph - N/A   Clear
4:53 AM 46.9 °F 41.0 °F 80% 29.97 in 10.0 mi NNW 4.6 mph - N/A   Clear
5:53 AM 48.9 °F 42.1 °F 77% 29.97 in 10.0 mi North 3.5 mph - N/A   Clear
5:58 AM 50.0 °F 42.1 °F 74% 29.97 in 10.0 mi North 4.6 mph - N/A   Scattered Clouds
6:53 AM 54.0 °F 44.1 °F 69% 29.97 in 10.0 mi North 4.6 mph - N/A   Scattered Clouds
7:53 AM 57.0 °F 44.1 °F 62% 29.97 in 10.0 mi NE 3.5 mph - N/A   Scattered Clouds
8:53 AM 57.9 °F 45.0 °F 62% 29.97 in 10.0 mi Calm Calm - N/A   Scattered Clouds
9:53 AM 61.0 °F 45.0 °F 56% 29.96 in 10.0 mi Calm Calm - N/A   Scattered Clouds
10:53 AM 68.0 °F 42.1 °F 39% 29.95 in 10.0 mi North 11.5 mph - N/A   Scattered Clouds
11:53 AM 70.0 °F 37.9 °F 31% 29.95 in 10.0 mi NNE 9.2 mph - N/A   Scattered Clouds
12:53 PM 72.0 °F 37.9 °F 29% 29.94 in 10.0 mi North 11.5 mph 17.3 mph N/A   Scattered Clouds
1:53 PM 73.0 °F 39.0 °F 29% 29.93 in 10.0 mi NNE 8.1 mph - N/A   Scattered Clouds
2:53 PM 75.0 °F 39.0 °F 27% 29.92 in 10.0 mi Variable 5.8 mph - N/A   Scattered Clouds
3:53 PM 75.9 °F 34.0 °F 22% 29.91 in 10.0 mi NNW 6.9 mph - N/A   Scattered Clouds
4:53 PM 78.1 °F 32.0 °F 19% 29.91 in 10.0 mi North 8.1 mph - N/A   Scattered Clouds
5:53 PM 77.0 °F 32.0 °F 19% 29.90 in 10.0 mi North 9.2 mph - N/A   Scattered Clouds
6:53 PM 75.9 °F 24.1 °F 15% 29.89 in 10.0 mi North 3.5 mph - N/A   Scattered Clouds
7:53 PM 75.9 °F 30.9 °F 19% 29.88 in 10.0 mi North 6.9 mph - N/A   Scattered Clouds
8:53 PM 73.9 °F 30.0 °F 20% 29.89 in 10.0 mi NNE 8.1 mph - N/A   Scattered Clouds
9:26 PM 73.0 °F 34.0 °F 24% 29.91 in 10.0 mi NE 10.4 mph - N/A   Scattered Clouds
9:53 PM 70.0 °F 36.0 °F 29% 29.90 in 10.0 mi NE 8.1 mph - N/A   Clear
10:53 PM 64.0 °F 37.0 °F 37% 29.90 in 10.0 mi NNE 6.9 mph - N/A   Clear
11:53 PM 62.1 °F 36.0 °F 38% 29.91 in 10.0 mi NNE 6.9 mph - N/A   Clear